Tracking 22459 objects as of 3-Mar-2021
HD Live streaming from Space Station
objects crossing your sky now

BREEZE-M DEB

Track BREEZE-M DEB now!
10-day predictions


NORAD ID: 34229
Int'l Code: 2006-006AU
Perigee: 372.3 km
Apogee: 11,338.0 km
Inclination: 51.4 °
Period: 224.2 minutes
Semi major axis: 12226 km
RCS: 0.0532 m2 (small)
Launch date: February 28, 2006
Source: Commonwealth of Independent States (former USSR) (CIS)
Launch site: TYURATAM MISSILE AND SPACE COMPLEX (TTMTR)

Note: This is SATELLITE DEBRIS
aabbcc
Your satellite tracking list
Your tracking list is empty




NASA's NSSDC Master Catalog

Two Line Element Set (TLE):
1 34229U 06006AU  20281.19588932 +.00004854 +00000-0 +14960-2 0  9993
2 34229 051.3775 204.3739 4484534 238.9431 069.5283 06.42200058268703
Source of the keplerian elements: AFSPC